Terug naar catalogus

ICEYE-X5

ActiefWetenschapPO
NORAD 44389·PAYLOAD·🇫🇮 Finland

Gelanceerd Jul 5, 2019 vanaf Vostochny Cosmodrome

Loading…

Volgende Passages (komende 24 uur)

TLE

VersSource: Space-Track

Epoch: Sep 14, 2026, 14:22 UTC

1 44389U 19038C   26257.59917421  .00057944  00000-0  61985-3 0  9990
2 44389  97.8586 321.7926 0003679 262.1691  97.9149 15.63698136396897

Volg ICEYE-X5 in realtime met AllMySat

Download on the App Store